Flag for Germany Weather past 2 weeks in Neuburg an der Donau, Bavaria, Germany

Now
77 °F

Scattered clouds.


Feels Like: 78 °F
Forecast: 55 / 77 °F
Wind: 15 mph from West

Location: Neuburg / Donau

Current Time: Jun 2, 2015 at 7:38:49 PM

Latest Report: Jun 2, 2015 at 5:20 PM


Visibility: N/A

Pressure: 30.07 "Hg

Humidity: 39%

Dew point: 50 °F

Location of Neuburg an der DonauLocation

Historic Weather in Neuburg an der Donau — Graph

°F

Neuburg an der Donau temperature yesterday

Maximum temperature yesterday: 73 °F (at 12:20 PM)
Minimum temperature yesterday: 54 °F (at 12:20 AM)
Average temperature yesterday: 63 °F

Past Weeks' High & Low Weather Summary

 TemperatureHumidityPressure
High77 °F (Jun 2, 4:20 PM)100% (May 21, 3:20 AM)30.30 "Hg (May 21, 3:20 AM)
Low41 °F (May 22, 4:20 AM)36% (May 22, 6:20 PM)29.74 "Hg (May 18, 6:20 PM)
Average56 °F73%30.03 "Hg
* Reported May 18 5:20 PM — Jun 2 5:20 PM, Neuburg an der Donau, Weather by CustomWeather, © 2015

Note: Actual official high and low records may vary slightly from our data, if they occured in-between our weather recording intervals... More about our weather records

Advertising

Neuburg an der Donau weather history for previous 24 hours

 ConditionsComfort  
Time TempWeatherWind HumidityBarometerVisibility
5:20 PM
Tue, Jun 2
77 °FScattered clouds.15 mph39%30.07 "HgN/A
4:20 PM77 °FScattered clouds.12 mph39%30.07 "HgN/A
3:20 PM75 °FScattered clouds.12 mph47%30.07 "HgN/A
2:20 PM73 °FBroken clouds.12 mph50%30.09 "HgN/A
1:20 PM73 °FBroken clouds.10 mph53%30.09 "HgN/A
12:20 PM72 °FPartly sunny.10 mph57%30.09 "HgN/A
11:20 AM68 °FPartly sunny.9 mph64%30.09 "HgN/A
10:20 AM66 °FBroken clouds.9 mph68%30.12 "HgN/A
9:20 AM64 °FPartly sunny.2 mph78%30.09 "HgN/A
8:20 AM61 °FBroken clouds.1 mph83%30.09 "HgN/A
7:20 AM59 °FBroken clouds.1 mph88%30.09 "HgN/A
6:20 AM55 °FLight rain. Partly sunny.1 mph94%30.09 "HgN/A
5:20 AM54 °FCool.5 mph100%30.07 "HgN/A
4:20 AM54 °FCool.2 mph94%30.07 "HgN/A
3:20 AM54 °FCool.2 mph88%30.07 "HgN/A
2:20 AM54 °FCool.2 mph94%30.09 "HgN/A
1:20 AM54 °FCool.2 mph94%30.09 "HgN/A
12:20 AM54 °FCool.2 mph94%30.09 "HgN/A
11:20 PM
Mon, Jun 1
55 °FCool.2 mph94%30.07 "HgN/A
10:20 PM57 °FCool.No wind82%30.07 "HgN/A
9:20 PM59 °FCool.2 mph82%30.04 "HgN/A
8:20 PM61 °FCool.5 mph77%30.04 "HgN/A
7:20 PM64 °FMild.9 mph73%30.04 "HgN/A
Weather by CustomWeather, © 2015

See weather overviewHow to use our weather pages